DELTA 1 DEB, 10708

Orbit data source: Space-Track

DELTA 1 DEB, 10708 is space debris in SSO originally from a launch on Thu, 29 Jul 1976 UTC launched from the Air Force Western Test Range (AFWTR). Debris objects in space refer to the collection of defunct objects orbiting the Earth. Examples of debris include non-operational satellites, rocket bodies, and fragments generated from explosions, collisions, or faulty payload assembly.

Loading next visibility...
Identifier
10708, 1976-077AD
Orbit
SSO
Country
Flag of USUS
Related business
Manufacturer
Unknown
Mission
Spacecraft
Bus & Motor
Unknown
Mass
Unknown
Launch date (UTC)
1976-07-29 (49 years ago)
Launch vehicle
Unknown
Launch site
Air Force Western Test Range (AFWTR)
Object type
Payload
Rocket body
Debris
Shape & HBR
Unknown shape, 0.1 m
Radar Cross Section
Small (<0.1 m²)

Expand to show TLE details & history
Last TLE update: 1 day ago

TLE from 1 day ago
0 DELTA 1 DEB
1 10708U 76077AD  25345.96131389  .00000545  00000-0  30778-2 0  9993
2 10708 101.2099 354.2846 0162372  15.6406  50.1549 12.63290264264208
Epoch: 2025-12-11T23:04Z
TLE epoch observation values (Epoch: 2025-12-11T23:04:17.520Z)
Latitude
64.84953°
Longitude
-97.53302°
Altitude
1,340.63 km
Speed
7.23 km/s
True Right ascension
21h 57m 47s
True Declination
64° 43' 37"
Sunlit
Object was in daylight at epoch
Visualization orbit readout
Latitude
Unknown
Longitude
Unknown
Altitude
Unknown
Speed
Unknown
Apparent Right ascension
Unknown
Apparent Declination
Unknown
Sunlit
N/A
Visualization observer readout
Local Sidereal Time
00:04:42
Azimuth
Unknown
Elevation
Unknown
Doppler factor
Unknown
Orbital elements
Apogee altitude
1,533.298 km
Perigee altitude
1,280.483 km
Semi-major axis
7,785.027 km
Eccentricity
0.01624
Inclination
101.2099°
RAAN
354.2846°
Arg. of periapsis
15.6406°
True anomaly
51.60212°
Mean anomaly
50.1549°
Eccentric anomaly
50.87663°
Mean motion
3.15975 °/min
Orbital period
113.93 mins
BSTAR
0.0030778
Loading maneuver chart data...
Computing Atmospheric mass density...
Loading historical data...
Loading historical data...
Loading historical data...
Loading historical data...
Loading historical data...
Loading historical data...
Loading historical data...

Documentation

Showing up to 5 results
|